Location: Birkenweiler
(47.7667°N, 9.3500°E)
Time: 10:31:33
(UTC+00:00)

Daily predictions for brighter satellites

Satellite Brightness Start Highest point End
(mag) Time Altitude Azimuth Time Altitude Azimuth Time Altitude Azimuth
Spot 1 4.5 16:00:41 10° NNE 16:05:18 57° ESE 16:10:09 10° S
Cosmos 1464 Rocket 4.1 16:03:27 10° S 16:09:48 77° E 16:16:12 10° NNE
Cosmos 1340 Rocket 3.0 16:06:07 10° N 16:10:08 52° ENE 16:14:06 10° SSE
SJ 16-02 2.8 16:06:24 10° NNW 16:10:34 43° WSW 16:14:42 10° S
CZ-4C R/B 3.5 16:07:01 10° N 16:10:55 73° WNW 16:14:35 10° SSW
ISS -3.3 16:10:20 10° WNW 16:13:38 45° N 16:16:56 10° E
Cosmos 1606 2.8 16:12:45 10° SSW 16:16:31 77° W 16:20:19 10° N
CZ-2D R/B 4.3 16:14:01 10° ESE 16:17:08 24° ENE 16:20:14 10° NNE
Lacrosse 5 rocket 2.7 16:14:45 10° NW 16:17:48 22° N 16:20:54 10° ENE
Nadezhda 4 Rocket 4.0 16:11:33 10° N 16:17:53 74° E 16:24:13 10° SSE
CZ-4B R/B 4.0 16:15:49 10° ESE 16:20:15 27° ENE 16:24:38 10° N
Cosmos 2360 4.4 16:15:00 10° NNW 16:20:37 52° NE 16:26:11 10° SE
ADEOS 4.4 16:15:34 10° S 16:20:41 55° WSW 16:25:51 10° NNW
Meteor 1-20 Rocket 4.4 16:16:23 10° N 16:22:09 58° ENE 16:27:55 10° SSE
CZ-2C R/B 3.9 16:19:28 10° NE 16:23:04 19° E 16:26:38 10° SE
Cosmos 1500 Rocket 3.6 16:18:55 10° N 16:23:20 60° ENE 16:27:41 10° SSE
Cosmos 540 Rocket 4.3 16:19:14 10° SSE 16:23:39 31° E 16:28:06 10° NE
CZ-4C R/B 3.3 16:17:18 10° NW 16:23:41 40° NE 16:31:12 10° ESE
CZ-4B R/B 3.0 16:23:08 10° SSE 16:27:13 81° WSW 16:31:06 10° NNW
Cosmos 1500 4.1 16:25:41 10° NNE 16:28:50 25° ENE 16:31:58 10° SE
SMAP 3.0 16:24:19 10° SSE 16:28:55 64° ENE 16:33:32 10° N
USA 305 3.8 16:25:36 10° WNW 16:29:33 37° N 16:32:56 13° ENE
CZ-2C R/B 3.2 16:26:08 10° S 16:31:04 73° WSW 16:35:50 10° NNW
Cosmos 1092 Rocket 4.1 16:26:21 10° N 16:32:39 58° ENE 16:38:51 10° SSE
Cosmos 468 Rocket 4.0 16:28:11 10° S 16:33:14 60° ESE 16:38:23 10° NNE
Cosmos 1898 Rocket 3.4 16:29:06 10° NNW 16:34:23 71° ENE 16:39:34 10° SSE
Cosmos 44 4.5 16:30:19 10° NW 16:34:52 45° WSW 16:39:09 10° S
Cosmos 1805 Rocket 3.7 16:30:41 10° N 16:34:53 47° ENE 16:39:04 10° SSE
Sich 1 3.5 16:31:31 10° N 16:35:32 38° ENE 16:39:33 10° SE
Cosmos 1933 3.6 16:32:42 10° SSE 16:36:34 45° E 16:40:26 10° NNE
Cosmos 1842 Rocket 4.0 16:34:49 10° SSW 16:39:16 67° WNW 16:43:45 10° N
Cosmos 2360 Rocket 4.1 16:37:45 10° NNE 16:39:18 11° NNE 16:40:27 10° NE
Cosmos 2221 3.2 16:35:10 10° SSW 16:39:22 57° WNW 16:43:38 10° N
PSLV R/B 3.8 16:38:41 10° SSE 16:42:14 49° ENE 16:45:52 10° N
SL-08 R/B 4.1 16:40:32 10° N 16:45:07 51° WNW 16:49:37 10° SW
Cosmos 2084 4.0 16:46:53 10° NW 16:51:08 62° SW 16:55:33 10° SSE
deb Chang Zheng 4 4.1 16:48:05 10° SE 16:52:01 36° ENE 16:55:59 10° N
AQUARIUS 4.1 16:48:02 10° SSE 16:52:31 89° WSW 16:57:03 10° NNW
Cosmos 1627 Rocket 4.4 16:47:11 10° N 16:53:22 70° ENE 16:59:28 10° SSE
H-2A R/B 2.0 16:49:49 10° SSE 16:54:54 59° ENE 16:59:52 10° N
Cosmos 2034 Rocket 4.3 16:49:56 10° SSW 16:56:05 71° W 17:02:16 10° N
NOSS 2-2 (C) 4.3 16:52:39 10° NW 16:57:38 65° NE 17:04:37 10° SE
ERBS 4.0 16:55:45 10° WNW 16:58:19 21° NNW 16:59:46 16° NNE
Cosmos 1666 3.4 16:55:15 10° N 16:58:33 29° ENE 17:01:50 10° SE
Cosmos 2322 Rocket 3.6 16:55:23 10° N 16:59:18 19° NE 17:00:05 18° NE
USA 306 3.8 16:57:52 10° WNW 17:01:47 35° N 17:03:44 23° NE
Cosmos 2279 Rocket 4.3 16:56:28 10° SSE 17:02:13 42° E 17:08:00 10° NNE
Cosmos 1697 Rocket 2.9 16:57:18 10° NNW 17:02:56 77° WSW 17:08:32 10° SSE
USA 267 3.4 16:58:13 16° NE 17:03:33 72° NNW 17:10:02 10° WSW
Cosmos 2369 3.6 17:00:33 10° NNW 17:06:20 79° ENE 17:12:03 10° SSE
Cosmos 1980 Rocket 2.1 17:01:10 10° NNW 17:06:51 65° ENE 17:12:25 10° SE
COSMO-SKYMED 1 3.0 17:05:08 20° NE 17:07:46 39° E 17:11:50 10° SSE
MOS 1-B Rocket 4.1 17:02:13 10° NNE 17:08:00 59° ESE 17:14:32 10° S
Cosmos 1763 Rocket 3.7 17:03:04 10° SSW 17:08:07 68° WNW 17:13:14 10° NNE
Cosmos 1939 Rocket 4.1 17:04:47 10° S 17:08:45 45° W 17:12:41 10° NNW
Meteor 1-5 Rocket 4.5 17:03:08 10° N 17:08:57 50° ENE 17:14:42 10° SSE
SL-24 R/B - RUBIN 2 3.4 17:07:12 10° NW 17:11:48 71° NE 17:15:48 12° SE
Meteor 2-21 4.4 17:06:21 10° N 17:12:30 84° E 17:18:33 10° S
Cosmos 841 Rocket 3.4 17:08:27 10° S 17:13:33 63° ESE 17:17:15 19° NNE
Cosmos 1812 2.9 17:11:34 10° SSE 17:15:15 46° E 17:16:32 32° NE
Cosmos 1937 Rocket 3.7 17:10:35 10° NNW 17:15:54 74° WSW 17:21:12 10° SSE
SL-16 R/B 3.1 17:11:52 10° N 17:16:41 27° NE 17:17:26 27° ENE
Cosmos 1125 Rocket 4.4 17:12:41 10° N 17:17:07 27° NE 17:17:07 27° NE
Cosmos 1634 Rocket 4.0 17:11:23 10° S 17:17:42 83° E 17:24:04 10° N
Cosmos 1633 Rocket 3.2 17:14:35 10° N 17:18:51 49° ENE 17:23:05 10° SSE
USA 307 3.8 17:16:13 10° WNW 17:20:10 35° N 17:21:20 29° NE
YAOGAN 1 4.0 17:22:20 21° NNE 17:22:20 21° NNE 17:24:11 10° N
Cosmos 2082 Rocket 2.2 17:15:33 10° S 17:21:07 59° ESE 17:24:27 24° NE
Cosmos 2026 Rocket 4.1 17:18:11 10° NNW 17:24:19 75° W 17:30:22 10° S
Cosmos 2333 Rocket 4.2 17:22:19 10° N 17:24:11 13° NNE 17:24:11 13° NNE
Okean O Rocket 1.5 17:25:19 10° SSE 17:29:45 72° ENE 17:34:13 10° N
ATLAS 2AS CENTAUR R/B 4.3 17:24:02 10° NW 17:29:57 23° N 17:33:27 17° NNE
Cosmos 372 Rocket 4.0 17:25:00 10° NNW 17:30:15 85° WSW 17:35:30 10° SSE
Cosmos 2278 3.6 17:25:05 10° NNW 17:30:48 71° ENE 17:36:29 10° SE
SKYMED 3 4.4 17:29:31 25° NNE 17:31:57 70° ESE 17:36:16 10° S
ATLAS CENTAUR R/B 4.0 17:32:37 10° NW 17:34:24 12° NNW 17:36:15 10° N
Cosmos 1151 Rocket 2.9 17:31:50 10° S 17:36:08 73° E 17:38:07 31° NNE
Cosmos 1782 3.3 17:32:17 10° SSW 17:36:13 58° WNW 17:39:44 13° N
Cosmos 1655 Rocket 4.1 17:30:38 10° N 17:36:52 50° ENE 17:43:01 10° SSE
USA 234 4.2 17:31:41 10° SSE 17:37:56 47° SW 17:44:13 10° WNW
COSMOS 2406 3.5 17:33:08 10° SW 17:38:51 67° WNW 17:43:04 19° NNE
COSMOS 2455 2.8 17:34:39 10° SSW 17:40:41 87° ESE 17:43:55 29° NE
USA 308 3.7 17:38:46 10° WNW 17:42:44 36° N 17:42:51 36° N
ARGOS 3.1 17:38:02 10° SSE 17:43:27 88° WSW 17:48:54 10° NNW
Cosmos 1666 Rocket 3.6 17:39:18 10° NNW 17:43:46 78° W 17:48:10 10° S
Cosmos 1833 Rocket 3.5 17:40:04 10° SW 17:45:29 48° NW 17:49:48 16° NNE
Cosmos 2180 Rocket 4.4 17:42:14 10° S 17:48:32 72° E 17:54:48 10° NNE
Meteor 2-6 Rocket 4.1 17:44:34 10° S 17:50:18 70° E 17:53:25 27° NNE
Cosmos 1328 Rocket 3.4 17:46:02 10° S 17:50:28 74° E 17:50:52 68° NE
ISS -3.2 17:47:13 10° WNW 17:50:10 58° WSW 17:50:10 58° WSW
Cosmos 2219 Rocket 4.3 17:51:13 10° N 17:52:22 13° NNE 17:52:22 13° NNE
CZ-4 R/B 4.0 17:59:49 11° N 17:59:49 11° N 17:59:54 10° N
SKYMED 2 3.8 17:53:45 29° N 17:55:55 68° WNW 18:00:12 10° SSW
Lacrosse 5 rocket 2.2 17:53:43 10° NW 17:56:30 39° NNW 17:56:30 39° NNW
NOAA 15 4.4 17:54:50 10° SSE 18:00:06 74° ENE 18:05:24 10° N
Landsat 5 3.4 18:00:26 81° WSW 18:00:26 81° WSW 18:04:19 10° SSW
CZ-4B R/B 3.9 17:55:14 10° S 18:00:31 53° W 18:05:46 10° NNW
Cosmos 2298 Rocket 4.0 17:55:23 10° NNW 18:00:27 61° NE 18:00:27 61° NE
Cosmos 1570 Rocket 3.8 17:55:43 10° SSW 18:00:58 85° ESE 18:02:05 57° NNE
Meteor 2-8 Rocket 4.3 17:55:33 10° S 18:01:41 85° E 18:07:54 10° N
ATLAS CENTAUR R/B 2.7 17:54:47 10° WSW 18:02:36 53° NW 18:03:22 47° N
SL-08 RB Rocket 3.8 17:58:40 10° S 18:03:18 79° WSW 18:07:57 10° NNW
GEOS 3 Rocket 3.5 18:02:08 55° SE 18:03:19 84° NE 18:08:33 10° NW
CZ-2C R/B 2.9 17:59:22 14° N 18:03:53 65° WNW 18:08:58 10° SSW
Meteor 1-11 Rocket 3.6 18:02:41 10° N 18:07:51 64° NE 18:07:51 64° NE
Meteor 1-10 Rocket 4.1 18:02:36 10° S 18:08:22 72° E 18:09:02 64° NE
Cosmos 1818 3.4 18:03:09 10° NW 18:08:41 80° NE 18:09:02 75° E
Cosmos 1814 Rocket 4.1 18:03:30 10° SSW 18:08:43 74° WNW 18:10:08 48° N
USA 305 4.1 18:06:02 10° WNW 18:08:56 34° NNW 18:08:56 34° NNW
Cosmos 44 Rocket 3.4 18:07:29 10° NW 18:11:47 66° NNW 18:11:47 66° NNW
CZ-4C R/B 3.1 18:05:38 10° NW 18:12:52 75° SW 18:20:10 15° SSE
Cosmos 2360 Rocket 3.7 18:19:44 10° NNW 18:22:13 24° N 18:22:13 24° N
Cosmos 2208 Rocket 4.3 18:28:23 10° SSW 18:33:45 67° WNW 18:33:46 67° WNW
Cosmos 2322 Rocket 3.2 18:38:35 10° NNW 18:41:55 36° NNW 18:41:55 36° NNW
USA 267 3.9 18:45:34 42° N 18:46:04 42° N 18:52:07 10° WNW
Cosmos 1980 Rocket 4.4 18:46:03 10° NW 18:50:20 22° W 18:54:34 10° SSW
SL-16 R/B 3.2 18:55:37 10° NNW 18:59:21 40° NW 18:59:21 40° NW
Cosmos 2082 Rocket 3.8 19:00:42 10° WSW 19:05:34 28° NW 19:06:20 28° NW
Cosmos 2333 Rocket 4.5 19:05:10 10° NNW 19:06:11 15° NNW 19:06:11 15° NNW
ATLAS 2AS CENTAUR R/B 4.3 19:16:52 10° NW 19:20:53 25° N 19:20:53 25° N
